owner,sensor,date,latitude,longitude,vertical_datum,wind_speed,wind_to_direction,wind_speed_of_gust,qcFlag 
TCOON,ioos:station:TCOON:031:1,2008-01-01T00:00:00Z,28.4073,-96.7122,0.0,1.8,110.0,2.4,'11111222,11111222,11111222' 
TCOON,ioos:station:TCOON:031:1,2008-01-01T01:00:00Z,28.4073,-96.7122,0.0,1.3,101.0,2.2,'11111222,11111222,11111222' 
TCOON,ioos:station:TCOON:031:1,2008-01-01T03:00:00Z,28.4073,-96.7122,0.0,6.2,360.0,9.8,'11111222,11144222,11111222' 
TCOON,ioos:station:TCOON:031:1,2008-01-01T04:00:00Z,28.4073,-96.7122,0.0,5.5,359.0,10.1,'11111222,11111222,11111222' 
TCOON,ioos:station:TCOON:031:1,2008-01-01T05:00:00Z,28.4073,-96.7122,0.0,5.2,4.0,10.5,'11111222,11111222,11111222' 
TCOON,ioos:station:TCOON:031:1,2008-01-01T07:00:00Z,28.4073,-96.7122,0.0,6.8,3.0,10.9,'11111222,11111222,11111222' 
TCOON,ioos:station:TCOON:031:1,2008-01-01T08:00:00Z,28.4073,-96.7122,0.0,6.6,5.0,12.3,'11111222,11111222,11111222' 
TCOON,ioos:station:TCOON:031:1,2008-01-01T09:00:00Z,28.4073,-96.7122,0.0,6.9,5.0,13.4,'11111222,11111222,11111222' 
TCOON,ioos:station:TCOON:031:1,2008-01-01T10:00:00Z,28.4073,-96.7122,0.0,6.9,4.0,10.4,'11111222,11111222,11111222' 
TCOON,ioos:station:TCOON:031:1,2008-01-01T11:00:00Z,28.4073,-96.7122,0.0,5.9,4.0,8.5,'11111222,11111222,11111222' 
TCOON,ioos:station:TCOON:031:1,2008-01-01T12:00:00Z,28.4073,-96.7122,0.0,5.1,1.0,8.5,'11111222,11111222,11111222' 
TCOON,ioos:station:TCOON:031:1,2008-01-01T13:00:00Z,28.4073,-96.7122,0.0,7.4,3.0,12.0,'11111222,11111222,11111222' 
TCOON,ioos:station:TCOON:031:1,2008-01-01T14:00:00Z,28.4073,-96.7122,0.0,6.9,4.0,11.0,'11111222,11111222,11111222' 
TCOON,ioos:station:TCOON:031:1,2008-01-01T15:00:00Z,28.4073,-96.7122,0.0,5.6,7.0,11.7,'11111222,11111222,11111222' 
TCOON,ioos:station:TCOON:031:1,2008-01-01T16:00:00Z,28.4073,-96.7122,0.0,7.6,6.0,12.0,'11111222,11111222,11111222' 
TCOON,ioos:station:TCOON:031:1,2008-01-01T17:00:00Z,28.4073,-96.7122,0.0,7.9,3.0,12.6,'11111222,11111222,11111222' 
TCOON,ioos:station:TCOON:031:1,2008-01-01T18:00:00Z,28.4073,-96.7122,0.0,5.9,2.0,11.0,'11111222,11111222,11111222' 
TCOON,ioos:station:TCOON:031:1,2008-01-01T19:00:00Z,28.4073,-96.7122,0.0,8.8,14.0,12.8,'11111222,11111222,11111222' 
TCOON,ioos:station:TCOON:031:1,2008-01-01T20:00:00Z,28.4073,-96.7122,0.0,6.0,356.0,8.9,'11111222,11111222,11111222' 
TCOON,ioos:station:TCOON:031:1,2008-01-01T21:00:00Z,28.4073,-96.7122,0.0,5.8,346.0,9.9,'11111222,11111222,11111222' 
TCOON,ioos:station:TCOON:031:1,2008-01-01T22:00:00Z,28.4073,-96.7122,0.0,6.3,353.0,9.1,'11111222,11111222,11111222' 
TCOON,ioos:station:TCOON:031:1,2008-01-01T23:00:00Z,28.4073,-96.7122,0.0,3.6,4.0,7.8,'11111222,11111222,11111222' 
TCOON,ioos:station:TCOON:031:1,2008-01-02T00:00:00Z,28.4073,-96.7122,0.0,2.8,1.0,4.3,'11111222,11111222,11111222' 
TCOON,ioos:station:TCOON:031:1,2008-01-02T01:00:00Z,28.4073,-96.7122,0.0,2.8,359.0,4.9,'11111222,11111222,11111222' 
TCOON,ioos:station:TCOON:031:1,2008-01-02T02:00:00Z,28.4073,-96.7122,0.0,2.6,349.0,4.6,'11111222,11111222,11111222' 
TCOON,ioos:station:TCOON:031:1,2008-01-02T03:00:00Z,28.4073,-96.7122,0.0,1.4,332.0,2.5,'11111222,11111222,11111222' 
TCOON,ioos:station:TCOON:031:1,2008-01-02T04:00:00Z,28.4073,-96.7122,0.0,2.0,355.0,2.6,'11111222,11111222,11111222' 
TCOON,ioos:station:TCOON:031:1,2008-01-02T05:00:00Z,28.4073,-96.7122,0.0,2.2,343.0,3.3,'11111222,11111222,11111222' 
TCOON,ioos:station:TCOON:031:1,2008-01-02T06:00:00Z,28.4073,-96.7122,0.0,2.3,349.0,3.7,'11111222,11111222,11111222' 
TCOON,ioos:station:TCOON:031:1,2008-01-02T07:00:00Z,28.4073,-96.7122,0.0,2.3,348.0,3.1,'11111222,11111222,11111222' 
TCOON,ioos:station:TCOON:031:1,2008-01-02T08:00:00Z,28.4073,-96.7122,0.0,3.0,344.0,4.6,'11111222,11111222,11111222' 
TCOON,ioos:station:TCOON:031:1,2008-01-02T09:00:00Z,28.4073,-96.7122,0.0,2.4,351.0,4.7,'11111222,11111222,11111222' 
TCOON,ioos:station:TCOON:031:1,2008-01-02T10:00:00Z,28.4073,-96.7122,0.0,3.0,348.0,5.3,'11111222,11111222,11111222' 
TCOON,ioos:station:TCOON:031:1,2008-01-02T11:00:00Z,28.4073,-96.7122,0.0,3.0,346.0,5.1,'11111222,11111222,11111222' 
TCOON,ioos:station:TCOON:031:1,2008-01-02T12:00:00Z,28.4073,-96.7122,0.0,3.0,349.0,4.5,'11111222,11111222,11111222' 
TCOON,ioos:station:TCOON:031:1,2008-01-02T13:00:00Z,28.4073,-96.7122,0.0,2.5,338.0,4.4,'11111222,11111222,11111222' 
TCOON,ioos:station:TCOON:031:1,2008-01-02T14:00:00Z,28.4073,-96.7122,0.0,2.5,345.0,4.1,'11111222,11111222,11111222' 
TCOON,ioos:station:TCOON:031:1,2008-01-02T15:00:00Z,28.4073,-96.7122,0.0,2.5,354.0,4.7,'11111222,11111222,11111222' 
TCOON,ioos:station:TCOON:031:1,2008-01-02T16:00:00Z,28.4073,-96.7122,0.0,4.5,4.0,7.1,'11111222,11111222,11111222' 
TCOON,ioos:station:TCOON:031:1,2008-01-02T17:00:00Z,28.4073,-96.7122,0.0,4.7,5.0,7.7,'11111222,11111222,11111222' 
TCOON,ioos:station:TCOON:031:1,2008-01-02T18:00:00Z,28.4073,-96.7122,0.0,5.8,8.0,8.2,'11111222,11111222,11111222' 
TCOON,ioos:station:TCOON:031:1,2008-01-02T19:00:00Z,28.4073,-96.7122,0.0,4.1,7.0,8.2,'11111222,11111222,11111222' 
TCOON,ioos:station:TCOON:031:1,2008-01-02T20:00:00Z,28.4073,-96.7122,0.0,5.4,334.0,8.7,'11111222,11111222,11111222' 
TCOON,ioos:station:TCOON:031:1,2008-01-02T21:00:00Z,28.4073,-96.7122,0.0,5.6,1.0,8.3,'11111222,11111222,11111222' 
TCOON,ioos:station:TCOON:031:1,2008-01-02T22:00:00Z,28.4073,-96.7122,0.0,5.2,11.0,7.2,'11111222,11111222,11111222' 
TCOON,ioos:station:TCOON:031:1,2008-01-02T23:00:00Z,28.4073,-96.7122,0.0,4.7,7.0,6.8,'11111222,11111222,11111222' 
TCOON,ioos:station:TCOON:031:1,2008-01-03T00:00:00Z,28.4073,-96.7122,0.0,1.5,354.0,3.3,'11111222,11111222,11111222' 
TCOON,ioos:station:TCOON:031:1,2008-01-03T01:00:00Z,28.4073,-96.7122,0.0,1.3,15.0,3.2,'11111222,11111222,11111222' 
TCOON,ioos:station:TCOON:031:1,2008-01-03T02:00:00Z,28.4073,-96.7122,0.0,2.4,360.0,3.7,'11111222,11144222,11111222' 
TCOON,ioos:station:TCOON:031:1,2008-01-03T03:00:00Z,28.4073,-96.7122,0.0,1.8,360.0,2.8,'11111222,11144222,11111222' 
TCOON,ioos:station:TCOON:031:1,2008-01-03T04:00:00Z,28.4073,-96.7122,0.0,0.0,353.0,1.8,'11111222,11111222,11111222' 
TCOON,ioos:station:TCOON:031:1,2008-01-03T05:00:00Z,28.4073,-96.7122,0.0,1.1,4.0,2.1,'11111222,11111222,11111222' 
TCOON,ioos:station:TCOON:031:1,2008-01-03T06:00:00Z,28.4073,-96.7122,0.0,2.3,8.0,3.4,'11111222,11111222,11111222' 
TCOON,ioos:station:TCOON:031:1,2008-01-03T07:00:00Z,28.4073,-96.7122,0.0,1.5,9.0,2.9,'11111222,11111222,11111222' 
TCOON,ioos:station:TCOON:031:1,2008-01-03T08:00:00Z,28.4073,-96.7122,0.0,1.9,5.0,3.0,'11111222,11111222,11111222' 
TCOON,ioos:station:TCOON:031:1,2008-01-03T09:00:00Z,28.4073,-96.7122,0.0,2.1,5.0,2.7,'11111222,11111222,11111222' 
TCOON,ioos:station:TCOON:031:1,2008-01-03T10:00:00Z,28.4073,-96.7122,0.0,3.1,7.0,4.4,'11111222,11111222,11111222' 
TCOON,ioos:station:TCOON:031:1,2008-01-03T11:00:00Z,28.4073,-96.7122,0.0,2.0,9.0,3.4,'11111222,11111222,11111222' 
TCOON,ioos:station:TCOON:031:1,2008-01-03T12:00:00Z,28.4073,-96.7122,0.0,3.4,358.0,4.4,'11111222,11111222,11111222' 
TCOON,ioos:station:TCOON:031:1,2008-01-03T13:00:00Z,28.4073,-96.7122,0.0,2.8,5.0,3.9,'11111222,11111222,11111222' 
TCOON,ioos:station:TCOON:031:1,2008-01-03T14:00:00Z,28.4073,-96.7122,0.0,2.5,14.0,4.2,'11111222,11111222,11111222' 
TCOON,ioos:station:TCOON:031:1,2008-01-03T15:00:00Z,28.4073,-96.7122,0.0,3.4,20.0,6.5,'11111222,11111222,11111222' 
TCOON,ioos:station:TCOON:031:1,2008-01-03T16:00:00Z,28.4073,-96.7122,0.0,5.0,18.0,7.9,'11111222,11111222,11111222' 
TCOON,ioos:station:TCOON:031:1,2008-01-03T17:00:00Z,28.4073,-96.7122,0.0,5.8,53.0,8.4,'11111222,11111222,11111222' 
TCOON,ioos:station:TCOON:031:1,2008-01-03T18:00:00Z,28.4073,-96.7122,0.0,4.5,59.0,6.9,'11111222,11111222,11111222' 
TCOON,ioos:station:TCOON:031:1,2008-01-03T19:00:00Z,28.4073,-96.7122,0.0,5.2,72.0,7.6,'11111222,11111222,11111222' 
TCOON,ioos:station:TCOON:031:1,2008-01-03T20:00:00Z,28.4073,-96.7122,0.0,4.6,87.0,8.6,'11111222,11111222,11111222' 
TCOON,ioos:station:TCOON:031:1,2008-01-03T21:00:00Z,28.4073,-96.7122,0.0,5.3,98.0,9.0,'11111222,11111222,11111222' 
TCOON,ioos:station:TCOON:031:1,2008-01-03T22:00:00Z,28.4073,-96.7122,0.0,5.2,77.0,7.8,'11111222,11111222,11111222' 
TCOON,ioos:station:TCOON:031:1,2008-01-03T23:00:00Z,28.4073,-96.7122,0.0,3.5,75.0,6.0,'11111222,11111222,11111222' 
TCOON,ioos:station:TCOON:031:1,2008-01-04T00:00:00Z,28.4073,-96.7122,0.0,2.5,40.0,3.9,'11111222,11111222,11111222' 
TCOON,ioos:station:TCOON:031:1,2008-01-04T01:00:00Z,28.4073,-96.7122,0.0,2.5,42.0,4.6,'11111222,11111222,11111222' 
TCOON,ioos:station:TCOON:031:1,2008-01-04T02:00:00Z,28.4073,-96.7122,0.0,3.6,86.0,5.1,'11111222,11111222,11111222' 
TCOON,ioos:station:TCOON:031:1,2008-01-04T03:00:00Z,28.4073,-96.7122,0.0,4.2,91.0,5.9,'11111222,11111222,11111222' 
TCOON,ioos:station:TCOON:031:1,2008-01-04T04:00:00Z,28.4073,-96.7122,0.0,2.4,110.0,3.9,'11111222,11111222,11111222' 
TCOON,ioos:station:TCOON:031:1,2008-01-04T05:00:00Z,28.4073,-96.7122,0.0,3.0,95.0,4.1,'11111222,11111222,11111222' 
TCOON,ioos:station:TCOON:031:1,2008-01-04T06:00:00Z,28.4073,-96.7122,0.0,4.5,118.0,5.3,'11111222,11111222,11111222' 
TCOON,ioos:station:TCOON:031:1,2008-01-04T07:00:00Z,28.4073,-96.7122,0.0,1.5,88.0,2.6,'11111222,11111222,11111222' 
TCOON,ioos:station:TCOON:031:1,2008-01-04T08:00:00Z,28.4073,-96.7122,0.0,2.0,69.0,2.6,'11111222,11111222,11111222' 
TCOON,ioos:station:TCOON:031:1,2008-01-04T09:00:00Z,28.4073,-96.7122,0.0,2.0,64.0,2.5,'11111222,11111222,11111222' 
TCOON,ioos:station:TCOON:031:1,2008-01-04T10:00:00Z,28.4073,-96.7122,0.0,1.8,46.0,2.4,'11111222,11111222,11111222' 
TCOON,ioos:station:TCOON:031:1,2008-01-04T11:00:00Z,28.4073,-96.7122,0.0,2.2,69.0,2.7,'11111222,11111222,11111222' 
TCOON,ioos:station:TCOON:031:1,2008-01-04T12:00:00Z,28.4073,-96.7122,0.0,2.3,37.0,2.8,'11111222,11111222,11111222' 
TCOON,ioos:station:TCOON:031:1,2008-01-04T13:00:00Z,28.4073,-96.7122,0.0,1.9,40.0,2.7,'11111222,11111222,11111222' 
TCOON,ioos:station:TCOON:031:1,2008-01-04T14:00:00Z,28.4073,-96.7122,0.0,1.6,27.0,2.6,'11111222,11111222,11111222' 
TCOON,ioos:station:TCOON:031:1,2008-01-04T15:00:00Z,28.4073,-96.7122,0.0,1.9,89.0,3.1,'11111222,11111222,11111222' 
TCOON,ioos:station:TCOON:031:1,2008-01-04T16:00:00Z,28.4073,-96.7122,0.0,6.0,135.0,9.1,'11111222,11111222,11111222' 
TCOON,ioos:station:TCOON:031:1,2008-01-04T17:00:00Z,28.4073,-96.7122,0.0,7.8,133.0,9.6,'11111222,11111222,11111222' 
TCOON,ioos:station:TCOON:031:1,2008-01-04T18:00:00Z,28.4073,-96.7122,0.0,7.6,124.0,9.8,'11111222,11111222,11111222' 
TCOON,ioos:station:TCOON:031:1,2008-01-04T19:00:00Z,28.4073,-96.7122,0.0,7.5,109.0,9.7,'11111222,11111222,11111222' 
TCOON,ioos:station:TCOON:031:1,2008-01-04T20:00:00Z,28.4073,-96.7122,0.0,8.0,153.0,10.7,'11111222,11111222,11111222' 
TCOON,ioos:station:TCOON:031:1,2008-01-04T21:00:00Z,28.4073,-96.7122,0.0,7.2,140.0,10.8,'11111222,11111222,11111222' 
TCOON,ioos:station:TCOON:031:1,2008-01-04T22:00:00Z,28.4073,-96.7122,0.0,7.4,135.0,9.8,'11111222,11111222,11111222' 
TCOON,ioos:station:TCOON:031:1,2008-01-04T23:00:00Z,28.4073,-96.7122,0.0,6.1,120.0,8.1,'11111222,11111222,11111222' 
TCOON,ioos:station:TCOON:031:1,2008-01-05T00:00:00Z,28.4073,-96.7122,0.0,2.2,102.0,2.7,'11111222,11111222,11111222' 
TCOON,ioos:station:TCOON:031:1,2008-01-05T01:00:00Z,28.4073,-96.7122,0.0,3.2,81.0,4.1,'11111222,11111222,11111222' 
TCOON,ioos:station:TCOON:031:1,2008-01-05T02:00:00Z,28.4073,-96.7122,0.0,2.6,105.0,3.6,'11111222,11111222,11111222' 
TCOON,ioos:station:TCOON:031:1,2008-01-05T03:00:00Z,28.4073,-96.7122,0.0,2.3,96.0,3.0,'11111222,11111222,11111222' 
TCOON,ioos:station:TCOON:031:1,2008-01-05T04:00:00Z,28.4073,-96.7122,0.0,4.6,141.0,6.0,'11111222,11111222,11111222' 
TCOON,ioos:station:TCOON:031:1,2008-01-05T05:00:00Z,28.4073,-96.7122,0.0,4.8,141.0,5.9,'11111222,11111222,11111222' 
TCOON,ioos:station:TCOON:031:1,2008-01-05T06:00:00Z,28.4073,-96.7122,0.0,4.2,141.0,5.6,'11111222,11111222,11111222' 
TCOON,ioos:station:TCOON:031:1,2008-01-05T07:00:00Z,28.4073,-96.7122,0.0,4.2,143.0,4.9,'11111222,11111222,11111222' 
TCOON,ioos:station:TCOON:031:1,2008-01-05T08:00:00Z,28.4073,-96.7122,0.0,1.8,166.0,2.2,'11111222,11111222,11111222' 
TCOON,ioos:station:TCOON:031:1,2008-01-05T09:00:00Z,28.4073,-96.7122,0.0,3.0,148.0,3.5,'11111222,11111222,11111222' 
TCOON,ioos:station:TCOON:031:1,2008-01-05T10:00:00Z,28.4073,-96.7122,0.0,1.3,179.0,2.2,'11111222,11111222,11111222' 
TCOON,ioos:station:TCOON:031:1,2008-01-05T11:00:00Z,28.4073,-96.7122,0.0,0.0,132.0,99.0,'11111222,11111222,11144222' 
TCOON,ioos:station:TCOON:031:1,2008-01-05T12:00:00Z,28.4073,-96.7122,0.0,0.0,132.0,99.0,'11111222,11111222,11144222' 
TCOON,ioos:station:TCOON:031:1,2008-01-05T13:00:00Z,28.4073,-96.7122,0.0,1.4,45.0,1.5,'11111222,11111222,11111222' 
TCOON,ioos:station:TCOON:031:1,2008-01-05T14:00:00Z,28.4073,-96.7122,0.0,1.5,27.0,2.1,'11111222,11111222,11111222' 
TCOON,ioos:station:TCOON:031:1,2008-01-05T15:00:00Z,28.4073,-96.7122,0.0,0.7,134.0,2.2,'11111222,11111222,11111222' 
TCOON,ioos:station:TCOON:031:1,2008-01-05T16:00:00Z,28.4073,-96.7122,0.0,2.2,166.0,2.5,'11111222,11111222,11111222' 
TCOON,ioos:station:TCOON:031:1,2008-01-05T17:00:00Z,28.4073,-96.7122,0.0,2.4,178.0,2.6,'11111222,11111222,11111222' 
TCOON,ioos:station:TCOON:031:1,2008-01-05T18:00:00Z,28.4073,-96.7122,0.0,2.5,174.0,3.1,'11111222,11111222,11111222' 
TCOON,ioos:station:TCOON:031:1,2008-01-05T19:00:00Z,28.4073,-96.7122,0.0,4.9,173.0,5.6,'11111222,11111222,11111222' 
TCOON,ioos:station:TCOON:031:1,2008-01-05T20:00:00Z,28.4073,-96.7122,0.0,5.6,160.0,6.8,'11111222,11111222,11111222' 
TCOON,ioos:station:TCOON:031:1,2008-01-05T21:00:00Z,28.4073,-96.7122,0.0,5.2,161.0,6.3,'11111222,11111222,11111222' 
TCOON,ioos:station:TCOON:031:1,2008-01-05T22:00:00Z,28.4073,-96.7122,0.0,6.8,146.0,8.4,'11111222,11111222,11111222' 
TCOON,ioos:station:TCOON:031:1,2008-01-05T23:00:00Z,28.4073,-96.7122,0.0,6.7,144.0,8.0,'11111222,11111222,11111222' 
TCOON,ioos:station:TCOON:031:1,2008-01-06T00:00:00Z,28.4073,-96.7122,0.0,5.2,130.0,6.8,'11111222,11111222,11111222' 
TCOON,ioos:station:TCOON:031:1,2008-01-06T01:00:00Z,28.4073,-96.7122,0.0,4.9,131.0,7.5,'11111222,11111222,11111222' 
TCOON,ioos:station:TCOON:031:1,2008-01-06T02:00:00Z,28.4073,-96.7122,0.0,5.1,134.0,6.4,'11111222,11111222,11111222' 
TCOON,ioos:station:TCOON:031:1,2008-01-06T03:00:00Z,28.4073,-96.7122,0.0,4.2,138.0,5.6,'11111222,11111222,11111222' 
TCOON,ioos:station:TCOON:031:1,2008-01-06T04:00:00Z,28.4073,-96.7122,0.0,4.6,139.0,6.2,'11111222,11111222,11111222' 
TCOON,ioos:station:TCOON:031:1,2008-01-06T05:00:00Z,28.4073,-96.7122,0.0,4.8,144.0,5.9,'11111222,11111222,11111222' 
TCOON,ioos:station:TCOON:031:1,2008-01-06T06:00:00Z,28.4073,-96.7122,0.0,5.0,149.0,6.8,'11111222,11111222,11111222' 
TCOON,ioos:station:TCOON:031:1,2008-01-06T07:00:00Z,28.4073,-96.7122,0.0,5.4,152.0,6.5,'11111222,11111222,11111222' 
TCOON,ioos:station:TCOON:031:1,2008-01-06T08:00:00Z,28.4073,-96.7122,0.0,5.7,145.0,7.2,'11111222,11111222,11111222' 
TCOON,ioos:station:TCOON:031:1,2008-01-06T09:00:00Z,28.4073,-96.7122,0.0,5.5,140.0,7.0,'11111222,11111222,11111222' 
TCOON,ioos:station:TCOON:031:1,2008-01-06T10:00:00Z,28.4073,-96.7122,0.0,5.8,145.0,7.4,'11111222,11111222,11111222' 
TCOON,ioos:station:TCOON:031:1,2008-01-06T11:00:00Z,28.4073,-96.7122,0.0,5.3,148.0,6.4,'11111222,11111222,11111222' 
TCOON,ioos:station:TCOON:031:1,2008-01-06T12:00:00Z,28.4073,-96.7122,0.0,3.9,141.0,4.9,'11111222,11111222,11111222' 
TCOON,ioos:station:TCOON:031:1,2008-01-06T13:00:00Z,28.4073,-96.7122,0.0,4.3,134.0,5.3,'11111222,11111222,11111222' 
TCOON,ioos:station:TCOON:031:1,2008-01-06T14:00:00Z,28.4073,-96.7122,0.0,4.8,129.0,6.5,'11111222,11111222,11111222' 
TCOON,ioos:station:TCOON:031:1,2008-01-06T15:00:00Z,28.4073,-96.7122,0.0,6.2,134.0,7.9,'11111222,11111222,11111222' 
TCOON,ioos:station:TCOON:031:1,2008-01-06T16:00:00Z,28.4073,-96.7122,0.0,8.6,139.0,10.2,'11111222,11111222,11111222' 
TCOON,ioos:station:TCOON:031:1,2008-01-06T17:00:00Z,28.4073,-96.7122,0.0,8.6,141.0,11.8,'11111222,11111222,11111222' 
TCOON,ioos:station:TCOON:031:1,2008-01-06T18:00:00Z,28.4073,-96.7122,0.0,9.0,151.0,13.5,'11111222,11111222,11111222' 
TCOON,ioos:station:TCOON:031:1,2008-01-06T19:00:00Z,28.4073,-96.7122,0.0,8.6,150.0,11.2,'11111222,11111222,11111222' 
TCOON,ioos:station:TCOON:031:1,2008-01-06T20:00:00Z,28.4073,-96.7122,0.0,8.6,151.0,10.2,'11111222,11111222,11111222' 
TCOON,ioos:station:TCOON:031:1,2008-01-06T21:00:00Z,28.4073,-96.7122,0.0,8.0,142.0,10.1,'11111222,11111222,11111222' 
TCOON,ioos:station:TCOON:031:1,2008-01-06T22:00:00Z,28.4073,-96.7122,0.0,7.6,131.0,10.4,'11111222,11111222,11111222' 
TCOON,ioos:station:TCOON:031:1,2008-01-06T23:00:00Z,28.4073,-96.7122,0.0,7.9,129.0,11.1,'11111222,11111222,11111222' 
TCOON,ioos:station:TCOON:031:1,2008-01-07T00:00:00Z,28.4073,-96.7122,0.0,7.5,126.0,10.6,'11111222,11111222,11111222' 
TCOON,ioos:station:TCOON:031:1,2008-01-07T01:00:00Z,28.4073,-96.7122,0.0,5.6,126.0,8.5,'11111222,11111222,11111222' 
TCOON,ioos:station:TCOON:031:1,2008-01-07T02:00:00Z,28.4073,-96.7122,0.0,5.5,126.0,7.2,'11111222,11111222,11111222' 
TCOON,ioos:station:TCOON:031:1,2008-01-07T03:00:00Z,28.4073,-96.7122,0.0,5.8,125.0,7.6,'11111222,11111222,11111222' 
TCOON,ioos:station:TCOON:031:1,2008-01-07T04:00:00Z,28.4073,-96.7122,0.0,7.3,127.0,9.0,'11111222,11111222,11111222' 
TCOON,ioos:station:TCOON:031:1,2008-01-07T05:00:00Z,28.4073,-96.7122,0.0,7.1,128.0,9.1,'11111222,11111222,11111222' 
TCOON,ioos:station:TCOON:031:1,2008-01-07T06:00:00Z,28.4073,-96.7122,0.0,6.8,128.0,9.1,'11111222,11111222,11111222' 
TCOON,ioos:station:TCOON:031:1,2008-01-07T07:00:00Z,28.4073,-96.7122,0.0,7.0,129.0,8.8,'11111222,11111222,11111222' 
TCOON,ioos:station:TCOON:031:1,2008-01-07T08:00:00Z,28.4073,-96.7122,0.0,7.1,129.0,9.3,'11111222,11111222,11111222' 
TCOON,ioos:station:TCOON:031:1,2008-01-07T09:00:00Z,28.4073,-96.7122,0.0,6.0,139.0,8.3,'11111222,11111222,11111222' 
TCOON,ioos:station:TCOON:031:1,2008-01-07T10:00:00Z,28.4073,-96.7122,0.0,5.7,142.0,6.8,'11111222,11111222,11111222' 
TCOON,ioos:station:TCOON:031:1,2008-01-07T11:00:00Z,28.4073,-96.7122,0.0,4.1,117.0,5.1,'11111222,11111222,11111222' 
TCOON,ioos:station:TCOON:031:1,2008-01-07T12:00:00Z,28.4073,-96.7122,0.0,4.5,125.0,6.3,'11111222,11111222,11111222' 
TCOON,ioos:station:TCOON:031:1,2008-01-07T13:00:00Z,28.4073,-96.7122,0.0,4.8,120.0,6.2,'11111222,11111222,11111222' 
TCOON,ioos:station:TCOON:031:1,2008-01-07T14:00:00Z,28.4073,-96.7122,0.0,6.7,123.0,8.8,'11111222,11111222,11111222' 
TCOON,ioos:station:TCOON:031:1,2008-01-07T15:00:00Z,28.4073,-96.7122,0.0,6.6,125.0,8.5,'11111222,11111222,11111222' 
TCOON,ioos:station:TCOON:031:1,2008-01-07T16:00:00Z,28.4073,-96.7122,0.0,8.2,129.0,11.9,'11111222,11111222,11111222' 
TCOON,ioos:station:TCOON:031:1,2008-01-07T17:00:00Z,28.4073,-96.7122,0.0,8.3,128.0,12.0,'11111222,11111222,11111222' 
TCOON,ioos:station:TCOON:031:1,2008-01-07T18:00:00Z,28.4073,-96.7122,0.0,9.2,124.0,12.0,'11111222,11111222,11111222' 
TCOON,ioos:station:TCOON:031:1,2008-01-07T19:00:00Z,28.4073,-96.7122,0.0,7.8,123.0,10.3,'11111222,11111222,11111222' 
TCOON,ioos:station:TCOON:031:1,2008-01-07T20:00:00Z,28.4073,-96.7122,0.0,10.2,125.0,13.8,'11111222,11111222,11111222' 
TCOON,ioos:station:TCOON:031:1,2008-01-07T21:00:00Z,28.4073,-96.7122,0.0,10.3,136.0,13.6,'11111222,11111222,11111222' 
TCOON,ioos:station:TCOON:031:1,2008-01-07T22:00:00Z,28.4073,-96.7122,0.0,9.0,123.0,11.5,'11111222,11111222,11111222' 
TCOON,ioos:station:TCOON:031:1,2008-01-07T23:00:00Z,28.4073,-96.7122,0.0,9.1,130.0,11.0,'11111222,11111222,11111222' 
TCOON,ioos:station:TCOON:031:1,2008-01-08T00:00:00Z,28.4073,-96.7122,0.0,6.0,118.0,8.5,'11111222,11111222,11111222' 
TCOON,ioos:station:TCOON:031:1,2008-01-08T01:00:00Z,28.4073,-96.7122,0.0,4.4,112.0,7.1,'11111222,11111222,11111222' 
TCOON,ioos:station:TCOON:031:1,2008-01-08T02:00:00Z,28.4073,-96.7122,0.0,7.0,120.0,9.6,'11111222,11111222,11111222' 
TCOON,ioos:station:TCOON:031:1,2008-01-08T03:00:00Z,28.4073,-96.7122,0.0,5.3,113.0,7.5,'11111222,11111222,11111222' 
TCOON,ioos:station:TCOON:031:1,2008-01-08T04:00:00Z,28.4073,-96.7122,0.0,5.3,121.0,7.4,'11111222,11111222,11111222' 
TCOON,ioos:station:TCOON:031:1,2008-01-08T06:00:00Z,28.4073,-96.7122,0.0,7.2,131.0,9.1,'11111222,11111222,11111222' 
TCOON,ioos:station:TCOON:031:1,2008-01-08T07:00:00Z,28.4073,-96.7122,0.0,7.3,126.0,9.7,'11111222,11111222,11111222' 
TCOON,ioos:station:TCOON:031:1,2008-01-08T08:00:00Z,28.4073,-96.7122,0.0,6.9,125.0,10.8,'11111222,11111222,11111222' 
TCOON,ioos:station:TCOON:031:1,2008-01-08T09:00:00Z,28.4073,-96.7122,0.0,8.8,129.0,11.8,'11111222,11111222,11111222' 
TCOON,ioos:station:TCOON:031:1,2008-01-08T10:00:00Z,28.4073,-96.7122,0.0,9.3,129.0,12.0,'11111222,11111222,11111222' 
TCOON,ioos:station:TCOON:031:1,2008-01-08T11:00:00Z,28.4073,-96.7122,0.0,6.7,127.0,8.2,'11111222,11111222,11111222' 
TCOON,ioos:station:TCOON:031:1,2008-01-08T12:00:00Z,28.4073,-96.7122,0.0,6.2,130.0,7.8,'11111222,11111222,11111222' 
TCOON,ioos:station:TCOON:031:1,2008-01-08T13:00:00Z,28.4073,-96.7122,0.0,6.0,118.0,7.8,'11111222,11111222,11111222' 
TCOON,ioos:station:TCOON:031:1,2008-01-08T14:00:00Z,28.4073,-96.7122,0.0,4.4,114.0,7.0,'11111222,11111222,11111222' 
TCOON,ioos:station:TCOON:031:1,2008-01-08T15:00:00Z,28.4073,-96.7122,0.0,4.0,115.0,5.4,'11111222,11111222,11111222' 
TCOON,ioos:station:TCOON:031:1,2008-01-08T16:00:00Z,28.4073,-96.7122,0.0,5.2,128.0,6.3,'11111222,11111222,11111222' 
TCOON,ioos:station:TCOON:031:1,2008-01-08T17:00:00Z,28.4073,-96.7122,0.0,4.1,120.0,5.7,'11111222,11111222,11111222' 
TCOON,ioos:station:TCOON:031:1,2008-01-08T18:00:00Z,28.4073,-96.7122,0.0,2.5,173.0,2.9,'11111222,11111222,11111222' 
TCOON,ioos:station:TCOON:031:1,2008-01-08T19:00:00Z,28.4073,-96.7122,0.0,2.7,161.0,3.2,'11111222,11111222,11111222' 
TCOON,ioos:station:TCOON:031:1,2008-01-08T20:00:00Z,28.4073,-96.7122,0.0,1.6,161.0,2.4,'11111222,11111222,11111222' 
TCOON,ioos:station:TCOON:031:1,2008-01-08T21:00:00Z,28.4073,-96.7122,0.0,2.9,162.0,3.2,'11111222,11111222,11111222' 
TCOON,ioos:station:TCOON:031:1,2008-01-08T22:00:00Z,28.4073,-96.7122,0.0,7.6,357.0,12.8,'11111222,11111222,11111222' 
TCOON,ioos:station:TCOON:031:1,2008-01-08T23:00:00Z,28.4073,-96.7122,0.0,8.2,12.0,12.1,'11111222,11111222,11111222' 
TCOON,ioos:station:TCOON:031:1,2008-01-09T00:00:00Z,28.4073,-96.7122,0.0,7.8,8.0,10.7,'11111222,11111222,11111222' 
TCOON,ioos:station:TCOON:031:1,2008-01-09T01:00:00Z,28.4073,-96.7122,0.0,5.1,7.0,8.3,'11111222,11111222,11111222' 
TCOON,ioos:station:TCOON:031:1,2008-01-09T02:00:00Z,28.4073,-96.7122,0.0,4.2,8.0,6.1,'11111222,11111222,11111222' 
TCOON,ioos:station:TCOON:031:1,2008-01-09T03:00:00Z,28.4073,-96.7122,0.0,3.4,360.0,6.1,'11111222,11144222,11111222' 
TCOON,ioos:station:TCOON:031:1,2008-01-09T04:00:00Z,28.4073,-96.7122,0.0,5.8,355.0,8.3,'11111222,11111222,11111222' 
TCOON,ioos:station:TCOON:031:1,2008-01-09T05:00:00Z,28.4073,-96.7122,0.0,5.0,353.0,7.9,'11111222,11111222,11111222' 
TCOON,ioos:station:TCOON:031:1,2008-01-09T06:00:00Z,28.4073,-96.7122,0.0,4.6,358.0,8.3,'11111222,11111222,11111222' 
TCOON,ioos:station:TCOON:031:1,2008-01-09T07:00:00Z,28.4073,-96.7122,0.0,5.7,355.0,8.3,'11111222,11111222,11111222' 
TCOON,ioos:station:TCOON:031:1,2008-01-09T08:00:00Z,28.4073,-96.7122,0.0,4.3,3.0,6.7,'11111222,11111222,11111222' 
TCOON,ioos:station:TCOON:031:1,2008-01-09T09:00:00Z,28.4073,-96.7122,0.0,4.0,356.0,6.1,'11111222,11111222,11111222' 
TCOON,ioos:station:TCOON:031:1,2008-01-09T10:00:00Z,28.4073,-96.7122,0.0,4.6,351.0,7.6,'11111222,11111222,11111222' 
TCOON,ioos:station:TCOON:031:1,2008-01-09T11:00:00Z,28.4073,-96.7122,0.0,5.0,354.0,8.4,'11111222,11111222,11111222' 
TCOON,ioos:station:TCOON:031:1,2008-01-09T12:00:00Z,28.4073,-96.7122,0.0,5.3,12.0,8.1,'11111222,11111222,11111222' 
TCOON,ioos:station:TCOON:031:1,2008-01-09T13:00:00Z,28.4073,-96.7122,0.0,4.2,11.0,5.8,'11111222,11111222,11111222' 
TCOON,ioos:station:TCOON:031:1,2008-01-09T14:00:00Z,28.4073,-96.7122,0.0,3.3,13.0,5.3,'11111222,11111222,11111222' 